Battle Mountain, Nevada, United States (89820)
Lat: 40.64N, Lon: 116.93W
Wx Zone: NVZ036
Local Info
Past Weather Observations for Thursday, September 25, 2014

NOTE: This archive is for the closest National Weather Service station to Battle Mountain. Information may differ from the station used for current weather conditions.

Click here for Long-term Archive

Time Weather Temperature Dewpoint Humidity Pressure Winds Precip Visibility
23:56
Overcast
55°F / 13°C 25°F / -4°C 31% 30.04 in
(1017 mb)
ENE 3.5 mph
(ENE 6 kph)
- 10SM
22:56
Overcast
55°F / 13°C 25°F / -4°C 31% 30.01 in
(1016 mb)
Calm - 10SM
21:56
Clear
55°F / 13°C 21°F / -6°C 26% 30.01 in
(1016 mb)
NW 4.6 mph
(NW 7 kph)
- 10SM
20:56
Clear
57°F / 14°C 27°F / -3°C 31% 30.01 in
(1016 mb)
Calm - 10SM
19:56
Clear
57°F / 14°C 28°F / -2°C 33% 30.01 in
(1016 mb)
Calm - 10SM
18:56
Clear
59°F / 15°C 30°F / -1°C 34% 29.98 in
(1015 mb)
WNW 3.5 mph
(WNW 6 kph)
- 10SM
17:56
Clear
61°F / 16°C 34°F / 1°C 36% 29.95 in
(1014 mb)
W 12.7 mph
(W 20 kph)
- 10SM
16:56
Clear
64°F / 18°C 34°F / 1°C 32% 29.95 in
(1014 mb)
WNW 17.3 mph
(WNW 28 kph)
- 10SM
15:56
Partly Cloudy
66°F / 19°C 36°F / 2°C 32% 29.95 in
(1014 mb)
W 21.9 mph
(W 35 kph)
- 8SM
14:56
Partly Cloudy
Hazy
68°F / 20°C 36°F / 2°C 30% 29.92 in
(1013 mb)
W 29.9 mph
(W 48 kph)
- 5SM
14:53
Partly Cloudy
Hazy
68°F / 20°C 36°F / 2°C 30% 29.92 in
(1013 mb)
W 26.5 mph
(W 43 kph)
- 5SM
14:40
Mostly Cloudy
Hazy
66°F / 19°C 36°F / 2°C 32% 29.92 in
(1013 mb)
W 21.9 mph
(W 35 kph)
- 4SM
14:29
Mostly Cloudy
Hazy
68°F / 20°C 37°F / 3°C 33% 29.92 in
(1013 mb)
W 24.2 mph
(W 39 kph)
- 4SM
14:07
Overcast
Hazy
72°F / 22°C 37°F / 3°C 29% 29.92 in
(1013 mb)
W 26.5 mph
(W 43 kph)
- 4SM
13:56
Mostly Cloudy
Hazy
73°F / 23°C 37°F / 3°C 27% 29.92 in
(1013 mb)
W 29.9 mph
(W 48 kph)
- 2SM
13:41
Mostly Cloudy
Hazy
73°F / 23°C 37°F / 3°C 27% 29.89 in
(1012 mb)
SSW 28.8 mph
(SSW 46 kph)
- 2 1/2SM
12:56
Clear
79°F / 26°C 34°F / 1°C 20% 29.89 in
(1012 mb)
W 17.3 mph
(W 28 kph)
- 10SM
11:56
Clear
79°F / 26°C 30°F / -1°C 17% 29.92 in
(1013 mb)
W 16.1 mph
(W 26 kph)
- 10SM
10:56
Clear
75°F / 24°C 28°F / -2°C 18% 29.92 in
(1013 mb)
W 8.1 mph
(W 13 kph)
- 10SM
09:56
Clear
73°F / 23°C 27°F / -3°C 17% 29.95 in
(1014 mb)
WNW 6.9 mph
(WNW 11 kph)
- 10SM
08:56
Clear
70°F / 21°C 27°F / -3°C 20% 29.95 in
(1014 mb)
W 12.7 mph
(W 20 kph)
- 8SM
07:56
Clear
64°F / 18°C 25°F / -4°C 22% 29.95 in
(1014 mb)
N 3.5 mph
(N 6 kph)
- 7SM
06:56
Clear
46°F / 8°C 19°F / -7°C 34% 29.95 in
(1014 mb)
Calm - 7SM
05:56
Clear
36°F / 2°C 14°F / -10°C 41% 29.95 in
(1014 mb)
Calm - 8SM
04:56
Clear
37°F / 3°C 18°F / -8°C 45% 29.95 in
(1014 mb)
NW 3.5 mph
(NW 6 kph)
- 10SM
03:56
Clear
39°F / 4°C 18°F / -8°C 42% 29.92 in
(1013 mb)
SE 3.5 mph
(SE 6 kph)
- 10SM
02:56
Clear
43°F / 6°C 19°F / -7°C 39% 29.92 in
(1013 mb)
SE 5.8 mph
(SE 9 kph)
- 10SM
01:56
Clear
48°F / 9°C 19°F / -7°C 32% 29.95 in
(1014 mb)
ESE 4.6 mph
(ESE 7 kph)
- 10SM
00:56
Clear
48°F / 9°C 21°F / -6°C 34% 29.95 in
(1014 mb)
SE 6.9 mph
(SE 11 kph)
- 10SM
Time Weather Temperature Dewpoint Humidity Pressure Winds Precip Visibility


Weather for websites

WeatherForYou.com, LLC is not responsible for any damages or problems caused by this service. Current weather conditions are obtained from the closest station including government and personal stations which may have varying degrees of accuracy. Weather forecasts are derived from the NOAA NDFD. Like all things, this site belongs to Jesus Christ... He just trusts me to maintain it. If you have any questions or comments email webmaster@weatherforyou.com

Copyright © 2014, WeatherForYou.com LLC. All rights reserved.